カタログに戻る

FENGYUN 1C DEB

運用中LEO
NORAD 30161·DEBRIS·🇨🇳 China

打ち上げ May 10, 1999 から Taiyuan Satellite Launch Center

Loading…

次のパス (今後24時間)

TLE

最新Source: Space-Track

元期: Sep 14, 2026, 11:21 UTC

1 30161U 99025TS  26257.47299558  .00000818  00000-0  97535-3 0  9996
2 30161 100.5181 265.5369 0325597 311.5289 216.8800 13.50476429962806

AllMySatでFENGYUN 1C DEBをリアルタイム追跡

Download on the App Store